Regional Weather Roundup
Issued by NWS

Home | Current Version | Previous Version | Graphics & Text | Print | Product List | Glossary On
Versions: 1 2 3 4 5 6 7 8 9 10 11 12 13 14 15 16 17 18 19 20 21 22 23 24 25 26 27
000
ASUS45 KTFX 241610
RWRMT
MONTANA REGIONAL WEATHER ROUNDUP
NATIONAL WEATHER SERVICE GREAT FALLS MT
900 AM MST FRI FEB 24 2017

NOTE: "FAIR" INDICATES FEW OR NO CLOUDS BELOW 12000 FEET WITH NO
SIGNIFICANT WEATHER AND/OR OBSTRUCTIONS TO VISIBILITY.

MTZ001>007-043-241700-
WEST OF THE DIVIDE

CITY           SKY/WX    TMP DP  RH WIND       PRES   REMARKS
KALISPELL      MOSUNNY    9   6  88 CALM      30.08R
MISSOULA       CLOUDY    27  17  66 NW10      30.07R WCI  17
BUTTE          CLOUDY    15  11  83 CALM      29.93R
MULLAN PASS    PTSUNNY   13  12  96 NW5       29.92R
ANACONDA         N/A     19  16  86 CALM      29.96R
DEER LODGE       N/A     21  18  86 CALM      30.00R
EUREKA           N/A     16  12  86 CALM      30.13R
HAMILTON         N/A     27  16  63 NW9       30.04R WCI  17
LIBBY            N/A     12  10  92 CALM      30.13R
PLAINS           N/A     13   7  77 CALM      30.12R VSB 0
RONAN            N/A     21  18  88 CALM      30.09R
$$

MTZ008-052>055-241700-
SOUTHWEST MONTANA

CITY           SKY/WX    TMP DP  RH WIND       PRES   REMARKS
BOZEMAN        LGT SNOW  24  21  88 SE5       29.96S FOG
DILLON         LGT SNOW  21  16  81 CALM      29.92R VSB 3/4
W YELLOWSTONE  LGT SNOW  14  10  85 CALM      29.87R
ENNIS          CLOUDY    19  16  86 S7        29.96S FOG     WCI  10
THREE FORKS      N/A     23  -2  33 SW5       29.96R
TWIN BRIDGES     N/A     23  15  71 W1        29.93R
$$

MTZ009-010-012-014-046-048-049-054-241700-
EAST SLOPES AND CENTRAL MONTANA

CITY           SKY/WX    TMP DP  RH WIND       PRES   REMARKS
CUT BANK       CLOUDY    16  11  80 NW6       30.00R WCI   7
GREAT FALLS    CLOUDY    25  19  78 CALM      29.99R
MALMSTROM AFB  CLOUDY    25  24  96 CALM      30.01R
HELENA         PTSUNNY   27  19  72 CALM      29.98R
AUGUSTA          N/A     21  18  91 CALM      29.96R
BOWMANS CRNR     N/A     20  18  94 W7        29.95R WCI  11
CHOTEAU          N/A     19  16  86 CALM      30.00S
CONRAD           N/A     17  16  96 NE2       30.02R
POWER            N/A     22  22  97 CALM      29.99R
RAYNESFORD     CLOUDY    20  15  84 CALM      29.98S
ULM            PTSUNNY   25  20  82 MISG      30.00R
$$

MTZ011-013-016-021-045-047-050-051-241700-
NORTH CENTRAL MONTANA

CITY           SKY/WX    TMP DP  RH WIND       PRES   REMARKS
HAVRE          CLOUDY    21  20  96 SW3       30.05S
LEWISTOWN      PTSUNNY   20  17  88 SW3       29.97R
N BAR RANCH    CLOUDY    21  19  93 SE5       29.98S FOG
CHINOOK          N/A    N/A N/A N/A NE3       30.06R
DENTON           N/A     21  19  92 CALM      29.97R
FORT BENTON      N/A     27  21  80 N7        30.05R WCI  19
GEYSER         PTSUNNY   23  19  83 SW8       29.97R WCI  14
GRASS RANGE    SNOWSHWR  22  22  98 CALM      29.95S
JUDITH GAP     FLURRIES  20  18  93 SW12      29.95R WCI   7
ROY            PTSUNNY   24  24  99 MISG      29.98S
STANFORD       SNOWSHWR  22  19  87 NW3       29.96R
WINIFRED       FLURRIES  21  20  98 SW3       29.99R
$$

MTZ017>020-022>027-061-062-241700-
NORTHEAST MONTANA

CITY           SKY/WX    TMP DP  RH WIND       PRES   REMARKS
GLASGOW        CLOUDY    26  22  84 SE12      30.09S WCI  16
JORDAN           N/A     26  22  84 SE9       30.07R WCI  17
SIDNEY         CLOUDY    24  16  71 S7        30.16S WCI  16
WOLF POINT     CLOUDY    27  21  78 E5        30.14R
PLENTYWOOD       N/A     25  16  68 S3        30.12S
SCOBEY           N/A     23  13  65 NE2       30.07S
$$

MTZ028>42-056>058-241700-
SOUTHCENTRAL AND SOUTHEAST MONTANA

CITY           SKY/WX    TMP DP  RH WIND       PRES   REMARKS
BAKER          SUNNY     19  10  68 SE14      30.10R WCI   6
BILLINGS       LGT SNOW  25  24  96 NE9       29.98R FOG     WCI  15
LIVINGSTON     LGT SNOW  21  17  84 SW6       29.95R FOG     WCI  13
MILES CITY     CLOUDY    25  17  72 SE9       30.08S WCI  15
BIG TIMBER     PTSUNNY   19  18  93 W6        29.98S WCI  11
EKALAKA          N/A     17   7  65 SE15      30.00S WCI   2
FORSYTH          N/A     27  25  93 E8        30.06S WCI  18
HARLOWTON      CLOUDY    21  19  93 SW5       29.97R
LAUREL           N/A     26  19  74 N2        29.96R
$$

REGIONAL REPORTS...DAKOTAS

CITY           SKY/WX    TMP DP  RH WIND       PRES   REMARKS
WILLISTON      CLOUDY    21  16  81 S3        30.16S
MINOT          SUNNY     24  11  57 NW5       30.14F
DICKINSON      SUNNY     16  13  88 CALM      30.10R
BEACH            N/A    N/A N/A N/A MISG        N/A
CROSBY           N/A     27  18  69 W12       30.15F WCI  16
TIOGA            N/A     23  19  86 W8        30.14S WCI  14
WATFORD CITY   CLOUDY    16  16 100 SW5       30.16S
BISMARCK       SUNNY     26  17  68 NW8       30.15S WCI  18
GRAND FORKS    CLOUDY    18   6  59 N12       30.15S WCI   5
FARGO          CLOUDY    21  12  68 N21       30.11R WCI   5
BUFFALO SD       N/A     18  12  77 S7        30.02R WCI   9
RAPID CITY     CLOUDY    18  13  80 N5        30.08R
$$

REGIONAL REPORTS...WYOMING/IDAHO/WASHINGTON

CITY           SKY/WX    TMP DP  RH WIND       PRES   REMARKS
GILLETTE       CLOUDY    22  18  85 SE6       29.97R FOG     WCI  14
SHERIDAN       CLOUDY    22  15  75 S7        29.97R WCI  13
BUFFALO WY     LGT SNOW  22  16  78 S9        29.93R WCI  12
CODY           LGT SNOW  20  16  84 SW5       29.93R FOG
YELLOWSTONE LA   N/A      6   4  91 CALM      29.83R
IDAHO FALLS    LGT SNOW  19  18  95 SW22      29.95R VSB 1   WCI   2
SALMON         PTSUNNY   27  19  74 S3        29.97S
BOISE          MOSUNNY   25  17  72 NW8       30.11  WCI  16
SPOKANE        FLURRIES  21  18  88 E5        30.12R
$$

REGIONAL REPORTS...ALBERTA

CITY           SKY/WX    TMP DP  RH WIND       PRES   REMARKS
EDMONTON       CLOUDY    14  10  85 N10       30.17R WCI   1
CALGARY        LGT SNOW  21  18  86 N10       30.03R WCI  10
LETHBRIDGE     CLOUDY    16  14  93 W7        30.04R WCI   6
MEDICINE HAT   LGT SNOW  25  23  93 VRB2      30.07R FOG
WATERTON GATE    N/A     10   3  72 N5          N/A
CARDSTON         N/A     12   5  73 SW7         N/A  WCI   2
MILK RIVER       N/A     16  12  86 W9          N/A  WCI   4
$$

REGIONAL REPORTS...SASKATCHEWAN

CITY           SKY/WX    TMP DP  RH WIND       PRES   REMARKS
SWIFT CURRENT  LGT SNOW  23  21  93 SW9       30.03S WCI  13
REGINA         PTSUNNY   23  18  80 W5        30.11R
SASKATOON      MOSUNNY   21  16  79 S6        30.11F WCI  14
CYPRESS HILLS    N/A     19  18  93 W2          N/A
VAL MARIE        N/A     25  23  93 S7          N/A  WCI  17
ROCKGLEN         N/A     19  18  93 S12         N/A  WCI   7
ASSINIBOIA       N/A     18  14  86 N15         N/A  WCI   3
$$




USA.gov is the U.S. government's official web portal to all federal, state and local government web resources and services.